Weather History for Bar Harbor, ME

Change the Weather History Date:

Tuesday, October 11, 2011

  Actual Average Record
Temperature  
Mean Temperature 51 °F -  
Max Temperature 60 °F 56 °F 74 °F (1961)
Min Temperature 42 °F 40 °F 31 °F (1952)
Degree Days  
Heating Degree Days 14    
Growing Degree Days 1 (Base 50)    
Moisture  
Dew Point 36 °F    
Average Humidity 58    
Maximum Humidity 71    
Minimum Humidity 42    
Precipitation  
Precipitation 0.00 in - - ()
Sea Level Pressure  
Sea Level Pressure 30.20 in    
Wind  
Wind Speed 5 mph (North)    
Max Wind Speed 13 mph    
Max Gust Speed 18 mph    
Visibility 10 miles    
Events      
Averages and records for this station are not official NWS values.
T = Trace of Precipitation, MM = Missing Value Source: NWS Daily Summary

Daily Weather History Graph

Daily Weather History Graph

Search for Another Location

Airport:

Trip Planner

Search our weather history database for the weather conditions in past years. The results will help you decide how hot, cold, wet, or windy it might be!

Date:

Astronomy

Oct. 11, 2011 Rise Set
Actual Time 6:43 AM EDT 5:56 PM EDT
Civil Twilight 6:13 AM EDT 6:25 PM EDT
Nautical Twilight 5:40 AM EDT 6:59 PM EDT
Astronomical Twilight 5:06 AM EDT 7:33 PM EDT
Moon 5:24 PM EDT (10/11) 6:19 AM EDT (10/11)
Length of Visible Light 12h 11m
Length of Day
11h 13m
Full, 100% of the Moon is Illuminated
Oct 11
Full
Oct 11
Full
Oct 19
Last Quarter
Oct 26
New
Nov 2
First Quarter

Hourly Weather History & Observations

Time (EDT) Temp. Windchill Dew Point Humidity Pressure Visibility Wind Dir Wind Speed Gust Speed Precip Events Conditions
12:15 AM 46.4 °F 43.5 °F 35.6 °F 66% 30.13 in 10.0 mi NNE 5.8 mph - N/A   Clear
12:35 AM 51.8 °F - 37.4 °F 58% 30.14 in 10.0 mi North 3.5 mph - N/A   Clear
1:35 AM 48.2 °F - 35.6 °F 62% 30.13 in 10.0 mi North 3.5 mph - N/A   Clear
1:55 AM 46.4 °F 45.2 °F 33.8 °F 62% 30.13 in 10.0 mi NNE 3.5 mph - N/A   Clear
2:15 AM 48.2 °F - 35.6 °F 62% 30.13 in 10.0 mi North 3.5 mph - N/A   Clear
2:35 AM 46.4 °F 45.2 °F 35.6 °F 66% 30.14 in 10.0 mi North 3.5 mph - N/A   Clear
2:55 AM 46.4 °F 44.3 °F 33.8 °F 62% 30.15 in 10.0 mi NW 4.6 mph - N/A   Clear
3:15 AM 46.4 °F 45.2 °F 33.8 °F 62% 30.16 in 10.0 mi NW 3.5 mph - N/A   Clear
3:35 AM 44.6 °F 42.2 °F 33.8 °F 66% 30.17 in 10.0 mi NNW 4.6 mph - N/A   Clear
3:55 AM 44.6 °F 41.4 °F 33.8 °F 66% 30.18 in 10.0 mi NW 5.8 mph - N/A   Clear
4:35 AM 44.6 °F 43.1 °F 35.6 °F 71% 30.19 in 10.0 mi NNW 3.5 mph - N/A   Clear
4:55 AM 44.6 °F 43.1 °F 35.6 °F 71% 30.20 in 10.0 mi NNW 3.5 mph - N/A   Clear
5:15 AM 42.8 °F 41.1 °F 33.8 °F 70% 30.20 in 10.0 mi North 3.5 mph - N/A   Clear
5:35 AM 44.6 °F 42.2 °F 35.6 °F 71% 30.20 in 10.0 mi North 4.6 mph - N/A   Clear
6:15 AM 44.6 °F 42.2 °F 33.8 °F 66% 30.21 in 10.0 mi North 4.6 mph - N/A   Clear
6:35 AM 44.6 °F 42.2 °F 35.6 °F 71% 30.20 in 10.0 mi North 4.6 mph - N/A   Clear
6:55 AM 44.6 °F 42.2 °F 35.6 °F 71% 30.21 in 10.0 mi North 4.6 mph - N/A   Clear
7:15 AM 44.6 °F 43.1 °F 33.8 °F 66% 30.22 in 10.0 mi North 3.5 mph - N/A   Clear
7:35 AM 44.6 °F 41.4 °F 35.6 °F 71% 30.22 in 10.0 mi NNE 5.8 mph - N/A   Clear
7:55 AM 44.6 °F 40.2 °F 35.6 °F 71% 30.23 in 10.0 mi NNE 8.1 mph - N/A   Clear
8:15 AM 46.4 °F 42.4 °F 35.6 °F 66% 30.23 in 10.0 mi NNE 8.1 mph - N/A   Clear
8:35 AM 46.4 °F 42.4 °F 35.6 °F 66% 30.24 in 10.0 mi NNE 8.1 mph - N/A   Clear
8:55 AM 48.2 °F - 35.6 °F 62% 30.23 in 10.0 mi NNE 6.9 mph - N/A   Clear
9:15 AM 48.2 °F - 35.6 °F 62% 30.24 in 10.0 mi NNE 6.9 mph - N/A   Clear
9:35 AM 51.8 °F - 35.6 °F 54% 30.24 in 10.0 mi NNE 8.1 mph - N/A   Clear
9:55 AM 51.8 °F - 35.6 °F 54% 30.24 in 10.0 mi NNE 9.2 mph - N/A   Clear
10:15 AM 51.8 °F - 35.6 °F 54% 30.24 in 10.0 mi North 6.9 mph - N/A   Clear
10:55 AM 53.6 °F - 35.6 °F 51% 30.24 in 10.0 mi NNW 5.8 mph - N/A   Clear
11:15 AM 55.4 °F - 37.4 °F 51% 30.24 in 10.0 mi NNE 8.1 mph - N/A   Clear
11:35 AM 53.6 °F - 37.4 °F 54% 30.24 in 10.0 mi North 6.9 mph - N/A   Clear
11:55 AM 55.4 °F - 37.4 °F 51% 30.24 in 10.0 mi NNW 5.8 mph - N/A   Clear
12:15 PM 55.4 °F - 35.6 °F 47% 30.23 in 10.0 mi North 8.1 mph - N/A   Clear
12:35 PM 57.2 °F - 35.6 °F 44% 30.22 in 10.0 mi North 6.9 mph - N/A   Clear
12:55 PM 57.2 °F - 35.6 °F 44% 30.22 in 10.0 mi NNE 12.7 mph 18.4 mph N/A   Clear
1:15 PM 57.2 °F - 37.4 °F 48% 30.21 in 10.0 mi North 5.8 mph - N/A   Clear
1:35 PM 57.2 °F - 35.6 °F 44% 30.21 in 10.0 mi North 6.9 mph - N/A   Clear
1:55 PM 59.0 °F - 37.4 °F 45% 30.20 in 10.0 mi NNE 8.1 mph - N/A   Clear
2:15 PM 59.0 °F - 37.4 °F 45% 30.20 in 10.0 mi NNE 9.2 mph - N/A   Clear
2:35 PM 59.0 °F - 37.4 °F 45% 30.19 in 10.0 mi NNE 9.2 mph - N/A   Clear
2:55 PM 59.0 °F - 37.4 °F 45% 30.20 in 10.0 mi North 3.5 mph - N/A   Clear
3:15 PM 60.8 °F - 37.4 °F 42% 30.20 in 10.0 mi North 6.9 mph - N/A   Clear
3:35 PM 60.8 °F - 37.4 °F 42% 30.20 in 10.0 mi North 4.6 mph - N/A   Clear
4:15 PM 59.0 °F - 37.4 °F 45% 30.20 in 10.0 mi North 3.5 mph - N/A   Clear
4:35 PM 59.0 °F - 37.4 °F 45% 30.20 in 10.0 mi NNW 3.5 mph - N/A   Clear
4:55 PM 59.0 °F - 37.4 °F 45% 30.20 in 10.0 mi North 4.6 mph - N/A   Clear
5:15 PM 57.2 °F - 37.4 °F 48% 30.20 in 10.0 mi NNE 3.5 mph - N/A   Clear
5:55 PM 53.6 °F - 37.4 °F 54% 30.21 in 10.0 mi Calm Calm - N/A   Clear
6:15 PM 51.8 °F - 37.4 °F 58% 30.21 in 10.0 mi Calm Calm - N/A   Clear
6:55 PM 50.0 °F - 37.4 °F 62% 30.23 in 10.0 mi NNE 3.5 mph - N/A   Clear
7:15 PM 46.4 °F - 37.4 °F 71% 30.23 in 10.0 mi North - - N/A   Clear
7:35 PM 48.2 °F - 39.2 °F 71% 30.23 in 10.0 mi NW 3.5 mph - N/A   Clear
7:55 PM 46.4 °F - 37.4 °F 71% 30.23 in 10.0 mi Calm Calm - N/A   Clear
8:15 PM 46.4 °F - 39.2 °F 76% 30.24 in 10.0 mi Calm Calm - N/A   Clear
8:35 PM 46.4 °F - 39.2 °F 76% 30.24 in 10.0 mi Calm Calm - N/A   Clear
8:55 PM 46.4 °F - 39.2 °F 76% 30.25 in 10.0 mi Calm Calm - N/A   Clear
9:15 PM 46.4 °F - 39.2 °F 76% 30.25 in 10.0 mi Calm Calm - N/A   Clear
9:35 PM 44.6 °F 43.1 °F 37.4 °F 76% 30.26 in 10.0 mi North 3.5 mph - N/A   Clear
9:55 PM 42.8 °F 41.1 °F 37.4 °F 81% 30.25 in 10.0 mi North 3.5 mph - N/A   Clear
10:15 PM 42.8 °F - 37.4 °F 81% 30.25 in 10.0 mi Calm Calm - N/A   Clear
10:35 PM 42.8 °F 41.1 °F 37.4 °F 81% 30.25 in 10.0 mi North 3.5 mph - N/A   Clear
10:55 PM 42.8 °F - 37.4 °F 81% 30.25 in 10.0 mi Calm Calm - N/A   Clear
11:15 PM 42.8 °F - 37.4 °F 81% 30.26 in 10.0 mi Calm Calm - N/A   Clear
11:35 PM 42.8 °F - 37.4 °F 81% 30.26 in 10.0 mi Calm Calm - N/A   Clear
11:55 PM 41.0 °F 39.0 °F 37.4 °F 87% 30.26 in 10.0 mi North 3.5 mph - N/A   Clear